METEOR 2-7 DEB, 43300

Orbit data source: Space-Track

METEOR 2-7 DEB, 43300 is space debris in LEO originally from a launch on Thu, 14 May 1981 UTC launched from the Plesetsk Missile And Space Complex (PKMTR). Debris objects in space refer to the collection of defunct objects orbiting the Earth. Examples of debris include non-operational satellites, rocket bodies, and fragments generated from explosions, collisions, or faulty payload assembly.

Loading next visibility...
METEOR 2-7 DEB details
Identifier
43300, 1981-043X
Orbit
LEO
Last TLE update20 hours ago
Origin
Flag of CISKVR (CIS)
ManufacturerUnknown
MissionSpacecraft
Bus & MotorUnknown
MassUnknown
Launch date (UTC)
1981-05-14 (44 years ago)
Launch vehicleUnknown
Launch site
Plesetsk Missile And Space Complex (PKMTR)
Object type
Payload
Rocket body
Debris
Shape & HBRUnknown
Radar Cross SectionSmall (<0.1 m²)

Expand to show TLE details & history

TLE from 20 hours ago
0 METEOR 2-7 DEB
1 43300U 81043X   25013.27612370  .00004488  00000-0  18406-2 0  9990
2 43300  81.2563 219.2960 0029965  99.8769 260.5796 14.26732008480948
Epoch: 2025-01-13T06:37Z
Definitive object data (Epoch: 2025-01-13T06:37:37.087Z)
Latitude-0.00005°
Longitude6.89197°
Altitude809.183 km
Speed7.447 km/s
True Right ascension14h 37m 11s
True Declination0° 00' 00"
Sunlit
Object was in daylight at TLE epoch
Visualization TLE readout
Latitude-6.1712°
Longitude5.10479°
Altitude811.554 km
Speed7.445 km/s
Apparent Right ascension14h 51m 22s
Apparent Declination-22° 00' 40"
Sunlit
Object is in daylight
Visualization observer readout
Local Sidereal Time03:22:33
Azimuth22.613° NE
Elevation-70.908°
Doppler factor1
Orbital elements
Apogee altitude821.335 km
Perigee altitude778.318 km
Semi-major axis7,177.963 km
Eccentricity0.0029965
Inclination81.2563°
RAAN219.296°
Arg. of periapsis99.8769°
True anomaly260.24107°
Mean anomaly260.5796°
Eccentric anomaly260.41031°
Mean motion3.56896 °/min
BSTAR0.0018406
Orbital period100.87 mins
Loading maneuver chart data...
Loading historical data...
Loading historical data...
Loading historical data...
Loading historical data...
Loading historical data...
Loading historical data...
Loading historical data...

METEOR 2-7 DEB Visibility forecast

Observer location: undefined°, undefined

Span
Click to sort rows by Start time (UTC) header in descending order
Start Az.
Max El. time (UTC)
Max El. Az.
Max El.
End time (UTC)
End Az.
5 mins2025-01-14 13:03:43.111Z119.85° SE2025-01-14 13:06:43.111Z83.243° E15.777°2025-01-14 13:08:43.111Z58.112° ENE
9 mins2025-01-14 14:43:43.111Z207.688° SW2025-01-14 14:47:43.111Z273.92° WNW39.107°2025-01-14 14:52:43.111Z359.11° N
8 mins2025-01-15 01:17:43.111Z351.573° N2025-01-15 01:21:43.111Z166.688° S43.893°2025-01-15 01:25:43.111Z171.616° S
|